Regional Weather Roundup
Issued by NWS

Home | Current Version | Previous Version | Text Only | Print | Product List | Glossary On
Versions: 1 2 3 4 5 6 7 8 9 10 11 12 13 14 15 16 17 18 19 20 21 22 23 24 25 26 27 28 29 30 31 32 33 34 35 36 37 38 39 40 41 42 43 44 45 46 47 48 49 50
000
ASUS43 KLSX 200707
RWRMO

WEATHER SUMMARY FOR MISSOURI
NATIONAL WEATHER SERVICE SPRINGFIELD MO
200 AM CDT SAT SEP 20 2014

NOTE: "FAIR" INDICATES FEW OR NO CLOUDS BELOW 12,000 FEET WITH NO
       SIGNIFICANT WEATHER AND/OR OBSTRUCTIONS TO VISIBILITY.
       CURRENT SKY AND/OR WEATHER CONDITIONS ARE NOT AVAILABLE FOR
       CHILLICOTHE AND FARMINGTON.

MOZ001>031-035>038-043-044-053-054-200800-
...NORTHERN AND WESTERN MISSOURI...

CITY           SKY/WX    TMP DP  RH WIND       PRES   REMARKS
KANSAS CTY INT PTCLDY    68  66  93 S12       29.93F
KANSAS C DTWN  CLEAR     71  67  87 SW8       29.93F
LEE`S SUMMIT   CLEAR     68  66  93 S8        29.96S
ST JOSEPH      CLEAR     67  66  97 S8        29.92R
CHILLICOTHE      N/A     68  65  90 S3        29.95R
KIRKSVILLE     CLEAR     68  62  81 SW10G20   29.94R

$$
MOZ066>068-077>081-088>096-101>105-200800-
...SOUTHWEST MISSOURI...

CITY           SKY/WX    TMP DP  RH WIND       PRES   REMARKS
SPRINGFIELD    CLEAR     66  63  90 S8        30.01S
JOPLIN         CLEAR     67  66  97 S6        30.00R FOG

$$
MOZ032>034-039>042-045>050-055>058-069>072-200800-
...CENTRAL MISSOURI...

CITY           SKY/WX    TMP DP  RH WIND       PRES   REMARKS
COLUMBIA       CLEAR     62  61  96 S7        29.97F
JEFFERSON CITY CLEAR     63  60  90 E5        29.97F
ROLLA          CLEAR     65  62  90 S9        29.99S FOG
SEDALIA        CLEAR     68  63  84 S9        29.97S
WHITEMAN AFB   CLEAR     65  63  94 SW9       29.96R
OSAGE BEACH    CLEAR     64  61  88 SE6       29.98F

$$
MOZ051-052-059>065-200800-
...EAST CENTRAL MISSOURI...

CITY           SKY/WX    TMP DP  RH WIND       PRES   REMARKS
ST LOUIS INTL  PTCLDY    68  59  73 S8        29.98F
SPIRIT OF STL  CLEAR     58  57  97 CALM      29.97F FOG
ST CHARLES     PTCLDY    57  56  96 N3        29.98F FOG

$$
MOZ072>076-082>087-097>100-106>115-200800-
...SOUTH CENTRAL AND SOUTHEAST MISSOURI...

CITY           SKY/WX    TMP DP  RH WIND       PRES   REMARKS
CAPE GIRARDEAU CLEAR     58  57  97 SE5       30.02F
FARMINGTON     CLEAR     57  55  94 CALM      30.04F
POPLAR BLUFF   CLEAR     60  57  89 CALM      30.01S FOG
WEST PLAINS    CLEAR     61  59  93 CALM      30.05S FOG

$$


USA.gov is the U.S. government's official web portal to all federal, state and local government web resources and services.